DW4479 Weather Reports


Display with metric or nautical units.
time (UTC)temp
F
wind
direction
speed
MPH
gust
MPH
rain 1hr
in
rain 24hr
in
rain mn
in
humidity
%
barometer
mb
20171120000700 38 173 0.0 0.0 0.00 0.00 0.00 89 1018.7
20171119235158 37 173 0.0 0.0 0.00 0.00 0.00 89 1018.8
20171119233658 37 173 0.0 0.0 0.00 0.00 0.00 89 1019.0
20171119232206 37 173 0.0 0.0 0.00 0.00 0.00 90 1019.2
20171119230715 37 173 0.0 0.0 0.00 0.00 0.00 90 1019.3
20171119225200 37 173 0.0 0.0 0.00 0.00 0.00 90 1019.4
20171119223656 37 173 0.0 0.0 0.00 0.00 0.00 90 1019.6
20171119222201 37 173 0.0 0.0 0.00 0.00 0.00 90 1019.8
20171119220656 37 173 0.0 0.0 0.00 0.00 0.00 91 1019.6
20171119215155 37 173 0.0 0.0 0.00 0.00 0.00 91 1019.8
20171119213704 36 173 0.0 0.0 0.00 0.00 0.00 91 1019.7
20171119212204 36 173 0.0 0.0 0.00 0.00 0.00 91 1019.9
20171119210655 36 173 0.0 0.0 0.00 0.00 0.00 90 1020.1
20171119205210 36 173 0.0 0.0 0.00 0.00 0.00 90 1020.2
20171119203651 36 173 0.0 0.0 0.00 0.00 0.00 89 1020.1
20171119202152 36 173 0.0 0.0 0.00 0.00 0.00 89 1020.3
20171119200651 36 173 0.0 0.0 0.00 0.00 0.00 89 1020.3
20171119195152 37 173 0.0 0.0 0.00 0.00 0.00 89 1020.3
20171119193650 37 173 0.0 0.0 0.00 0.00 0.00 89 1020.4
20171119192153 37 173 0.0 0.0 0.00 0.00 0.00 89 1020.3
20171119190704 37 173 0.0 0.0 0.00 0.00 0.00 89 1020.0
20171119185146 37 173 0.0 0.0 0.00 0.00 0.00 88 1019.8
20171119183721 38 173 0.0 0.0 0.00 0.00 0.00 88 1019.7
20171119182149 38 141 0.0 0.0 0.00 0.00 0.00 88 1019.8
20171119180650 38 214 0.0 0.0 0.00 0.00 0.00 92 1019.8
20171119175144 38 219 0.0 0.0 0.00 0.00 0.00 87 1019.8
20171119173645 38 219 0.0 0.0 0.00 0.00 0.00 86 1020.0
20171119172151 38 219 0.0 0.0 0.00 0.00 0.00 86 1020.1
20171119170649 39 126 0.0 0.0 0.00 0.00 0.00 85 1020.0
20171119165141 39 126 0.0 0.0 0.00 0.00 0.00 85 1020.0
20171119163648 39 132 0.0 0.0 0.00 0.00 0.00 85 1019.9
20171119162139 39 132 0.0 0.0 0.00 0.00 0.00 84 1019.8
20171119160637 40 132 0.0 0.0 0.00 0.00 0.00 83 1019.8
20171119155138 41 132 0.0 0.0 0.00 0.00 0.00 81 1019.7
20171119153636 42 132 0.0 0.0 0.00 0.00 0.00 80 1019.7
20171119152135 42 132 0.0 0.0 0.00 0.00 0.00 79 1019.7
20171119150635 43 94 0.0 0.0 0.00 0.00 0.00 79 1019.7
20171119145136 43 121 0.0 0.0 0.00 0.00 0.00 78 1019.6
20171119143649 44 263 0.0 0.0 0.00 0.00 0.00 77 1019.6
20171119142133 45 91 1.0 0.0 0.00 0.00 0.00 76 1019.6
20171119140636 45 289 0.0 0.0 0.00 0.00 0.00 75 1019.4
20171119135149 45 249 0.0 0.0 0.00 0.00 0.00 76 1019.3
20171119133631 45 295 2.0 0.0 0.00 0.00 0.00 76 1019.7
20171119132128 45 259 1.0 0.0 0.00 0.00 0.00 78 1019.5
20171119130641 45 246 1.0 0.0 0.00 0.00 0.00 77 1019.5
20171119125131 44 331 1.0 0.0 0.00 0.00 0.00 78 1019.6
20171119123629 44 295 1.0 0.0 0.00 0.00 0.00 78 1019.5
20171119122200 44 229 1.0 0.0 0.00 0.00 0.00 78 1019.5
20171119120626 44 259 1.0 0.0 0.00 0.00 0.00 79 1019.5
20171119115136 43 252 1.0 0.0 0.00 0.00 0.00 80 1019.6
20171119113619 43 252 2.0 0.0 0.00 0.00 0.00 80 1019.6
20171119112119 43 286 0.0 0.0 0.00 0.00 0.00 81 1019.5
20171119110619 42 156 1.0 0.0 0.00 0.00 0.00 82 1019.3
20171119105112 41 302 1.0 0.0 0.00 0.00 0.00 83 1019.4
20171119103609 40 159 0.0 0.0 0.00 0.00 0.00 84 1019.5
20171119102105 40 290 2.0 0.0 0.00 0.00 0.00 85 1019.3
20171119100604 39 294 1.0 0.0 0.00 0.00 0.00 86 1019.3
20171119095100 38 261 0.0 0.0 0.00 0.00 0.00 87 1019.1
20171119093600 37 315 1.0 0.0 0.00 0.00 0.00 89 1019.0
20171119092055 36 281 1.0 0.0 0.00 0.00 0.00 89 1018.9
20171119090552 36 168 0.0 0.0 0.00 0.00 0.00 90 1018.9
20171119085049 35 290 0.0 0.0 0.00 0.00 0.00 90 1018.7
20171119083546 35 282 0.0 0.0 0.00 0.00 0.00 91 1018.5
20171119082050 35 311 0.0 0.0 0.00 0.00 0.00 91 1018.6
20171119080549 34 214 0.0 0.0 0.00 0.00 0.00 91 1018.5
20171119075041 34 259 0.0 0.0 0.00 0.00 0.00 91 1018.4
20171119073552 34 270 0.0 0.0 0.00 0.00 0.00 91 1018.2
20171119072041 34 267 0.0 0.0 0.00 0.00 0.00 91 1017.8
20171119070542 34 298 0.0 0.0 0.00 0.00 0.00 91 1017.6
20171119065033 34 276 0.0 0.0 0.00 0.00 0.00 91 1017.6
20171119063532 34 250 0.0 0.0 0.00 0.00 0.00 91 1017.5
20171119062039 34 355 0.0 0.0 0.00 0.00 0.00 91 1017.4
20171119060529 34 126 0.0 0.0 0.00 0.00 0.00 91 1017.2
20171119055027 35 275 0.0 0.0 0.00 0.00 0.00 91 1016.9
20171119053529 35 274 0.0 0.0 0.00 0.00 0.00 91 1017.1
20171119052030 35 272 1.0 0.0 0.00 0.00 0.00 91 1017.2
20171119050532 35 286 1.0 0.0 0.00 0.00 0.00 91 1017.2
20171119045020 35 304 1.0 0.0 0.00 0.00 0.00 91 1016.9
20171119043530 35 286 0.0 0.0 0.00 0.00 0.00 92 1016.8
20171119042020 35 292 0.0 0.0 0.00 0.00 0.00 91 1016.7
20171119040518 35 270 0.0 0.0 0.00 0.00 0.00 91 1016.6
20171119035058 36 346 0.0 0.0 0.00 0.00 0.00 91 1016.7
20171119033901 36 250 0.0 0.0 0.00 0.00 0.00 90 1016.6
20171119032545 36 273 0.0 0.0 0.00 0.00 0.00 90 1016.7
20171119030516 36 117 0.0 0.0 0.00 0.00 0.00 90 1016.7
20171119025014 37 275 0.0 0.0 0.00 0.00 0.00 90 1016.5
20171119023527 37 247 0.0 0.0 0.00 0.00 0.00 90 1016.6
20171119022009 37 265 0.0 0.0 0.00 0.00 0.00 90 1016.6
20171119020508 37 333 0.0 0.0 0.00 0.00 0.00 89 1016.5
20171119015001 38 293 0.0 0.0 0.00 0.00 0.00 88 1016.5
20171119013459 38 253 1.0 0.0 0.00 0.00 0.00 87 1016.6
20171119012005 38 239 0.0 0.0 0.00 0.00 0.00 86 1016.6
20171119010455 39 270 0.0 0.0 0.00 0.00 0.00 85 1016.6
20171119005007 39 257 1.0 0.0 0.00 0.00 0.00 83 1016.4
20171119003452 39 283 0.0 0.0 0.00 0.00 0.00 82 1016.2
20171119001951 39 279 0.0 0.0 0.00 0.00 0.00 82 1016.3